Wind_Speed
70 68 65 62 60 59 60 61 61 60 60 61 61 60 60 60 63 64 64 63 62 61 60 59 60 57 53 52 50 48 47 47 48 49 50 50 50 48 48 48 47 46 44 43 43 42 42 43 43 44 45 46 47 47 47 46 45 43 42 41 42 43 45 47 49 50 50 50 51 52 51 48 44 44 44 44 44 43 43 43 41 36 31 31 30 27
72 68 65 62 61 61 62 62 61 61 61 62 61 60 60 60 61 62 64 64 63 61 59 59 59 55 52 50 48 47 48 48 50 50 50 50 50 49 48 48 47 46 45 43 42 41 42 43 44 44 45 46 47 47 47 47 45 43 41 40 40 42 44 47 49 50 50 51 51 51 53 50 44 46 47 46 44 43 42 40 38 34 31 32 32 30
71 68 66 64 63 63 63 63 62 62 62 62 61 60 60 59 58 60 62 63 63 61 59 59 58 54 52 48 46 48 49 50 51 50 50 51 52 50 49 48 47 46 45 43 41 42 43 43 44 44 46 47 47 48 47 46 44 42 40 39 39 40 42 45 47 49 49 50 50 49 51 50 46 47 49 46 43 41 40 39 35 31 29 29 27 28
71 69 68 66 65 64 63 62 61 61 61 61 61 60 60 59 58 59 60 61 62 61 60 59 58 55 51 47 46 49 50 50 51 51 51 52 52 51 50 48 47 46 45 42 42 43 43 43 44 45 46 47 47 47 46 44 42 40 39 39 39 39 40 42 44 46 48 50 50 49 48 49 50 50 48 45 43 40 39 39 36 31 29 28 24 26
73 72 69 68 68 66 63 61 61 60 60 60 60 60 59 58 59 59 58 59 60 62 62 61 58 55 50 47 47 50 50 50 51 51 52 53 52 51 50 48 47 46 44 43 43 44 44 44 45 46 46 46 46 46 45 43 41 39 39 38 38 38 39 40 42 43 45 47 50 50 48 47 48 49 46 40 37 36 35 35 34 34 35 34 28 27
74 72 71 72 70 67 65 63 61 60 60 59 60 60 59 59 59 58 57 58 58 61 63 63 59 54 50 48 48 49 50 50 51 52 53 53 53 52 50 48 47 46 44 44 44 44 44 45 46 46 46 46 45 44 43 42 41 39 39 38 37 37 37 38 40 41 43 44 46 48 49 48 48 48 45 37 31 32 32 30 31 34 38 38 34 30
74 73 73 73 71 69 68 66 64 62 61 60 60 60 60 60 59 57 57 57 57 60 64 64 60 55 52 51 49 50 50 51 52 53 54 54 53 52 50 49 47 46 45 45 45 45 45 46 46 46 46 46 45 44 43 41 40 38 37 37 36 37 37 37 38 39 40 42 44 46 47 49 49 48 46 38 31 30 31 28 28 32 34 36 36 34
73 73 74 72 71 70 69 67 65 64 62 61 60 60 60 60 59 58 58 57 56 59 63 64 60 57 56 53 51 51 51 52 53 54 54 54 53 52 51 50 48 47 46 45 45 46 46 46 46 46 46 46 45 45 43 41 38 36 36 36 36 37 37 37 38 38 38 39 42 44 45 48 49 48 47 44 37 32 30 29 28 29 31 33 36 38
73 74 73 71 71 70 69 68 66 65 64 62 61 61 61 60 60 59 59 58 56 57 61 61 60 59 58 55 53 52 52 53 53 53 54 54 53 52 51 50 49 48 47 46 46 46 47 46 47 47 46 46 46 45 43 40 37 36 36 36 36 36 37 37 38 38 38 37 39 41 44 46 48 47 46 48 45 36 31 29 28 29 31 33 35 39
75 75 74 72 71 70 70 69 68 67 65 63 63 62 62 61 60 60 59 57 56 56 57 58 59 62 61 57 54 53 53 54 53 53 54 54 54 53 52 51 50 49 48 46 46 47 47 46 46 47 46 46 46 45 43 40 38 37 37 36 36 36 36 37 37 37 37 38 37 39 42 44 47 47 45 48 49 42 35 33 30 31 32 33 34 37
77 78 76 75 74 73 73 72 71 69 66 65 65 63 62 62 61 60 59 57 56 56 55 55 58 62 63 60 56 54 54 55 54 53 53 54 54 53 52 52 51 50 48 47 48 48 47 46 47 47 46 46 46 45 43 41 39 38 37 36 36 36 36 36 35 35 35 38 38 38 40 43 46 47 46 47 50 47 42 39 36 36 35 33 33 34
78 79 77 75 75 74 74 73 71 69 68 67 65 63 63 63 62 62 60 57 56 55 54 54 57 61 64 62 57 55 55 55 54 53 53 54 54 54 53 52 52 50 48 48 49 48 47 47 47 46 46 46 45 45 43 42 40 39 38 38 37 37 37 37 37 35 34 35 38 39 39 42 45 47 48 48 50 52 49 46 44 42 40 38 35 34
77 78 76 75 74 73 72 70 68 67 66 66 64 63 63 63 63 62 59 55 54 55 54 54 56 59 63 62 58 56 55 54 54 53 53 54 54 54 54 53 52 50 48 49 49 48 48 47 47 47 46 46 46 45 44 43 41 40 40 39 39 40 40 41 40 39 37 36 37 39 40 42 44 47 49 49 51 56 57 54 50 48 46 45 41 37
76 76 75 74 72 71 69 66 64 63 62 62 61 61 61 62 62 60 56 53 54 54 53 54 56 57 61 62 58 56 55 55 55 54 54 55 55 55 54 53 52 50 49 50 50 49 48 48 48 48 47 47 46 46 44 43 42 41 41 41 41 42 43 43 43 42 41 38 37 39 41 43 45 46 49 51 52 56 61 60 55 51 51 51 48 42
73 72 72 70 69 68 66 63 61 61 61 60 60 60 60 61 60 57 55 54 54 54 53 55 56 56 59 61 58 56 56 56 55 55 55 56 56 56 54 53 51 49 50 50 50 49 48 48 48 48 48 47 47 46 44 43 42 42 42 42 43 44 44 45 45 45 45 42 39 38 41 45 47 47 48 52 53 56 61 63 60 55 53 53 52 48
71 71 70 68 67 66 64 62 60 61 61 60 60 60 61 61 60 58 56 56 55 55 55 56 55 54 57 59 58 56 57 56 56 56 57 57 57 56 54 53 51 50 50 51 50 49 49 49 48 48 48 48 47 46 45 44 43 44 44 45 45 46 46 46 46 47 47 46 41 38 40 44 47 48 48 51 54 56 61 65 65 61 56 55 54 51
70 71 70 68 67 67 66 64 62 62 62 59 59 59 60 61 58 56 56 56 56 56 56 56 55 54 55 57 58 58 58 57 57 57 58 58 58 56 55 53 51 51 51 51 50 49 49 49 48 48 48 47 46 45 45 45 45 46 47 47 48 49 49 48 48 48 47 46 43 39 38 42 45 47 48 51 54 57 60 65 68 66 61 57 57 55
69 70 69 69 69 68 67 66 66 65 62 59 58 57 57 58 57 57 58 57 56 57 57 55 54 53 55 57 58 58 58 58 59 59 59 60 58 56 55 53 51 51 52 51 50 50 49 49 48 48 48 47 46 45 45 46 47 48 49 50 50 51 50 49 48 47 45 44 42 38 38 41 44 47 48 50 54 57 61 65 68 69 66 61 58 56
69 69 70 70 69 69 69 69 67 65 62 60 58 56 55 56 56 58 58 56 56 56 54 53 52 53 55 57 57 58 58 59 60 60 60 60 58 56 55 53 52 52 52 51 51 50 50 49 49 48 47 46 46 45 46 46 48 49 50 52 52 52 51 49 47 45 44 43 40 37 37 40 44 47 49 50 52 56 60 63 66 67 69 67 63 59
68 69 70 70 70 70 70 68 65 62 61 59 56 55 55 56 58 58 57 55 55 54 53 53 53 53 55 56 57 58 59 60 60 60 60 60 58 56 55 53 52 53 52 51 51 51 50 49 48 47 47 46 46 45 46 47 49 50 52 53 54 53 51 49 46 44 43 42 39 36 36 39 42 45 48 50 51 54 58 62 64 66 68 70 69 65
68 69 69 69 69 69 67 64 62 60 59 57 54 53 54 55 56 56 56 55 55 54 54 54 54 55 56 58 58 58 59 61 61 59 60 59 57 56 55 53 53 53 53 52 52 51 50 49 48 47 47 46 46 46 47 48 49 51 53 54 54 53 50 48 45 43 41 40 37 34 34 37 40 43 45 48 49 51 56 59 61 64 67 70 71 69
66 67 67 67 67 65 62 61 60 58 57 55 55 53 53 53 53 53 55 56 55 56 56 56 57 57 58 59 59 59 60 61 59 59 59 59 57 56 54 53 54 54 53 52 52 51 50 49 49 48 47 47 47 48 48 49 51 53 54 55 54 52 49 46 44 42 39 38 35 33 33 35 39 41 43 47 49 49 52 56 58 61 65 67 69 69
64 65 64 63 63 61 59 58 58 58 56 56 57 55 55 55 54 54 55 55 56 57 58 59 59 58 58 59 58 58 59 58 57 58 59 59 57 56 54 54 55 54 52 52 52 51 51 50 50 49 49 49 49 49 50 51 52 54 55 55 55 51 47 45 44 40 37 36 34 32 32 34 37 39 41 45 48 48 50 53 55 57 60 62 64 64
60 61 59 58 59 59 59 58 58 58 58 58 57 55 56 56 55 56 56 56 57 59 58 58 57 56 57 57 57 58 58 58 58 59 59 59 57 56 55 56 56 54 53 53 52 52 52 51 50 50 51 50 50 50 51 52 53 54 55 56 55 51 47 45 43 40 35 34 33 31 30 33 35 37 39 42 44 46 48 51 53 54 55 57 58 58
55 55 54 54 56 56 56 57 57 58 57 57 55 53 54 54 55 56 56 57 58 58 57 58 56 55 57 58 57 57 58 59 60 60 59 59 57 57 57 57 56 55 55 54 53 52 52 51 52 52 52 52 51 52 52 53 54 54 55 56 54 51 46 44 42 38 34 32 31 29 29 31 33 35 36 39 40 42 46 50 51 52 52 51 52 51
51 50 50 50 50 50 50 51 52 53 53 52 52 52 53 53 54 55 55 56 57 56 57 57 56 56 58 58 57 57 57 59 59 59 60 59 58 58 58 58 57 57 56 54 53 52 52 53 53 54 54 53 53 53 53 53 54 54 55 56 54 51 46 44 41 36 33 31 30 28 29 31 33 34 36 38 39 41 44 48 50 50 49 47 47 47
47 47 47 48 48 49 49 48 48 49 50 51 51 52 52 52 52 52 54 55 56 56 56 56 55 56 58 57 57 57 57 59 59 60 60 60 59 60 59 58 58 57 56 54 53 53 54 55 55 55 55 55 55 55 54 54 54 54 55 56 55 51 46 43 40 35 31 30 29 29 31 32 34 35 37 39 40 41 43 46 49 49 48 47 45 45
45 45 46 47 48 48 49 49 50 51 51 51 52 52 53 53 53 54 56 56 56 56 56 56 56 56 57 56 56 57 58 59 60 60 60 60 60 60 60 59 59 58 56 55 55 55 55 56 56 56 56 56 56 56 55 55 55 54 55 55 55 52 47 43 39 34 30 29 29 31 33 34 35 37 39 40 41 43 44 46 48 49 49 48 46 44
45 45 45 45 46 46 48 49 51 52 52 52 52 52 53 54 55 57 58 56 56 56 56 57 57 56 56 56 56 58 59 60 61 61 61 61 61 61 61 60 59 57 56 56 56 56 56 56 57 57 57 57 57 56 56 55 55 54 54 55 55 52 48 43 39 32 29 29 30 34 37 37 37 38 40 42 42 44 45 46 47 49 49 51 49 47
44 45 45 45 45 46 48 49 50 51 52 52 52 52 53 54 56 57 57 55 55 55 56 57 56 56 57 57 57 58 59 60 61 62 62 62 62 62 62 61 59 58 58 58 58 57 58 58 58 58 58 58 57 57 56 56 55 54 54 54 54 53 48 43 39 32 28 29 31 36 40 41 40 40 41 43 44 44 46 47 47 48 49 51 52 51
44 45 45 46 46 47 48 48 49 49 50 51 52 52 53 54 54 54 53 53 54 55 56 57 56 57 57 57 58 59 59 60 62 62 63 63 63 62 62 61 60 60 59 59 59 59 59 59 59 59 59 59 58 57 56 56 55 55 55 54 54 52 49 44 39 33 28 29 33 38 43 44 45 44 42 43 45 46 47 47 48 48 48 49 51 51
46 45 45 46 47 48 48 47 48 48 49 50 52 52 53 53 53 53 53 54 55 56 56 57 57 58 58 58 59 60 61 62 62 63 63 63 63 63 62 62 62 61 61 61 61 61 61 61 60 60 60 59 58 57 56 55 54 54 55 55 53 52 49 45 40 35 30 29 33 39 44 47 48 47 45 44 45 46 48 48 48 48 48 48 48 48
45 44 44 45 46 47 48 48 49 50 51 52 53 53 53 53 54 54 55 55 56 57 57 57 58 59 59 59 59 60 61 62 63 63 63 63 64 64 64 64 63 62 62 62 62 62 62 62 61 60 60 59 58 57 56 55 54 54 54 54 53 52 50 46 41 36 32 29 32 38 44 47 50 50 49 47 46 47 48 49 50 49 49 48 47 46
46 46 46 47 48 48 49 51 52 53 54 54 55 55 55 56 56 56 56 57 57 57 58 58 59 59 60 60 60 60 61 61 62 63 64 64 65 66 65 64 63 63 63 64 64 63 62 62 61 60 60 59 58 57 56 54 54 54 54 54 53 51 49 47 42 37 33 31 32 37 43 47 50 52 51 50 49 49 49 50 50 50 49 48 47 46
51 50 50 51 52 53 54 55 55 55 55 56 56 56 57 57 58 57 57 57 57 57 58 58 59 59 60 60 60 60 61 61 62 63 64 64 65 65 64 64 64 64 65 64 64 63 63 62 62 61 60 59 58 56 55 54 54 55 55 54 53 51 49 47 44 39 35 33 33 36 42 46 48 51 52 52 52 52 52 51 51 51 51 50 49 47
53 53 53 54 54 54 54 54 54 54 55 56 55 56 57 57 57 57 57 56 56 57 57 58 58 58 59 59 60 60 61 61 61 62 63 63 63 64 64 64 65 65 65 64 64 64 63 63 62 62 60 59 57 56 55 54 55 56 56 56 55 52 50 48 46 42 37 35 35 36 40 45 48 50 51 52 54 55 55 54 53 53 52 52 52 51
52 52 53 54 54 54 54 54 54 55 55 55 54 54 55 56 56 56 56 56 56 56 56 56 57 57 57 58 59 59 59 60 60 61 62 62 62 63 64 64 65 65 64 64 64 64 64 63 62 62 60 59 57 56 56 56 57 57 58 57 56 54 52 49 48 45 41 37 36 37 39 43 47 49 50 52 54 56 57 57 56 55 53 53 53 53
52 52 52 54 55 55 56 56 56 55 55 54 54 53 54 55 55 55 56 56 56 55 55 55 55 56 56 57 57 58 58 58 59 60 61 61 62 63 63 64 64 64 64 64 64 64 64 64 63 62 61 60 58 58 58 58 58 59 59 59 57 55 53 51 48 47 45 40 38 38 41 43 45 48 50 52 54 57 59 59 59 58 56 55 55 55
52 52 52 53 54 55 55 55 55 54 54 53 53 52 53 54 54 54 55 55 55 55 55 55 55 55 56 56 57 57 57 58 59 60 61 61 62 62 63 63 64 64 65 65 64 64 64 64 64 63 62 61 60 60 60 60 60 60 61 60 58 56 55 53 50 48 47 44 40 39 41 44 46 47 49 51 53 56 59 61 62 62 61 59 58 57
51 51 52 53 54 54 54 54 54 54 54 53 52 51 51 52 52 53 53 53 54 55 55 55 55 55 56 56 57 57 58 59 60 61 61 62 62 62 63 63 64 65 66 66 65 65 65 65 65 65 64 63 62 62 62 62 62 63 63 62 60 57 56 55 53 50 49 48 44 40 40 44 47 48 49 51 52 53 56 60 63 65 65 65 63 61
50 50 51 52 53 53 53 53 53 53 52 51 51 51 51 51 51 51 51 52 54 54 54 55 55 55 56 56 57 58 59 59 60 61 61 62 62 63 64 64 65 66 67 66 66 66 66 66 66 66 65 64 64 63 63 64 65 66 65 63 61 59 57 55 54 53 51 50 48 44 41 42 47 50 51 52 52 52 53 55 59 62 65 67 68 67
47 48 48 49 49 49 50 50 50 50 51 51 51 51 51 51 51 50 51 52 54 54 54 55 55 56 57 58 59 59 60 61 61 61 62 63 63 64 65 65 66 67 67 67 67 67 66 66 66 66 66 65 65 65 66 67 68 68 67 65 62 60 58 56 55 54 53 52 51 49 45 43 45 50 54 54 55 55 54 55 56 58 61 64 68 70
44 45 45 46 47 47 47 48 49 49 50 51 51 51 52 52 52 52 53 54 55 55 56 56 56 57 58 59 60 60 61 62 62 63 63 64 65 65 66 67 67 68 68 68 68 67 67 67 67 67 67 67 67 68 69 70 70 69 67 65 63 61 59 57 55 54 54 54 53 52 50 48 46 48 53 57 58 57 58 57 57 57 59 61 65 68
42 43 44 45 46 46 47 48 49 50 50 51 51 51 52 53 53 54 55 55 56 57 57 58 58 59 59 60 60 61 61 62 63 64 64 65 66 66 67 67 68 68 68 68 68 68 68 68 68 68 69 70 71 72 72 72 71 69 67 65 63 61 59 57 56 55 55 56 56 55 54 53 50 49 51 57 60 61 61 61 60 59 59 60 62 65
42 43 44 45 46 46 47 48 49 50 51 51 52 53 54 54 55 55 56 56 57 57 58 59 59 60 60 60 61 62 62 63 64 65 65 66 66 67 68 68 68 68 68 68 69 69 69 69 70 70 72 73 74 74 73 72 70 68 66 65 63 61 59 58 58 57 57 57 58 58 57 57 56 54 52 54 59 63 64 63 63 63 62 61 61 62
42 43 44 45 46 47 48 49 50 51 52 53 54 55 55 56 56 56 57 57 58 58 59 59 60 60 61 62 62 63 63 64 65 65 65 66 67 67 68 68 68 68 68 69 69 70 71 72 73 73 74 74 74 73 72 70 69 67 66 64 63 62 61 61 61 60 60 60 60 60 60 60 60 59 57 55 57 61 64 66 66 66 66 66 64 63
43 44 45 46 47 48 49 50 51 52 53 54 54 55 56 56 56 57 57 58 58 59 59 60 61 62 62 63 63 64 64 65 65 65 66 66 66 67 67 67 68 68 69 70 71 72 73 74 74 73 73 72 71 71 70 69 68 67 66 65 65 65 65 65 64 64 64 64 64 63 63 63 63 63 62 61 59 59 62 66 68 69 69 69 69 68
45 46 47 48 49 50 51 52 53 53 54 54 55 55 56 56 57 57 58 58 59 60 60 61 62 62 63 63 64 64 65 65 65 66 66 67 67 68 68 69 70 71 72 72 72 73 72 72 71 70 70 70 69 69 68 68 68 67 68 68 68 68 68 67 67 67 66 66 66 66 66 66 65 65 65 65 64 62 62 64 67 70 71 72 72 72
48 49 49 50 51 52 53 54 54 55 55 56 56 56 57 57 58 58 59 60 61 61 62 62 63 63 64 64 65 65 66 66 67 67 68 69 69 70 70 71 71 71 71 70 70 69 69 68 68 68 68 68 69 69 69 69 69 69 69 69 69 69 68 67 67 67 66 66 67 67 67 67 67 67 67 67 67 67 65 64 65 68 71 73 75 75
50 51 51 52 52 53 54 55 56 56 57 57 58 58 58 59 59 60 61 62 62 63 63 63 64 64 65 65 66 66 67 67 67 68 68 68 68 68 68 68 67 67 67 66 66 66 66 66 67 67 68 68 69 69 70 70 70 70 69 69 68 67 66 66 65 64 64 64 65 65 66 67 67 68 68 68 68 69 68 67 66 66 68 71 74 76
51 52 52 52 53 54 55 56 56 57 57 57 57 58 58 59 60 61 61 61 61 62 62 63 63 63 64 64 64 64 64 64 64 64 63 63 63 63 63 63 64 64 64 64 65 66 66 66 67 68 68 69 69 69 69 69 69 68 67 67 66 65 64 64 63 63 62 62 63 63 64 64 65 66 67 68 68 68 69 69 69 68 67 68 70 74
Wind_Direction
225 225 224 223 223 223 223 224 225 227 228 230 231 231 231 230 230 229 230 231 233 235 237 239 240 240 238 239 240 241 242 242 243 245 246 247 249 250 252 254 258 261 264 266 269 273 277 281 284 286 289 291 292 292 291 291 289 286 282 276 270 265 260 257 255 252 250 249 248 246 241 240 245 251 253 254 254 251 250 252 255 258 261 261 261 255
225 225 224 223 221 221 221 222 222 224 226 228 230 230 230 230 230 230 229 230 232 234 235 237 239 239 237 237 238 239 240 240 242 244 245 246 248 249 251 254 257 261 263 266 270 274 278 281 284 287 290 291 291 292 292 292 291 289 284 278 271 265 261 257 254 253 251 249 249 248 246 244 247 251 252 255 255 253 250 250 251 253 257 265 270 267
224 224 224 223 222 221 221 221 221 222 224 227 228 229 230 230 230 231 230 231 232 232 233 236 237 237 235 234 235 237 239 240 242 244 245 245 247 249 251 254 256 260 263 266 270 274 278 281 284 287 289 290 292 293 295 295 293 290 285 280 274 268 263 259 256 254 252 250 248 248 248 246 245 247 249 251 254 255 251 246 245 247 252 260 266 266
223 223 224 224 223 222 221 221 221 222 224 226 228 229 229 230 230 230 231 231 231 231 232 234 235 235 234 232 233 237 239 241 243 244 244 245 247 249 251 253 255 259 263 267 270 273 277 280 284 286 288 290 293 295 296 295 293 288 284 280 276 271 267 263 259 256 254 252 251 249 248 245 242 244 245 248 252 255 251 246 243 244 246 250 251 259
222 221 222 223 224 223 222 221 221 221 223 226 227 228 229 230 230 230 231 231 231 230 230 233 234 234 233 231 232 236 239 242 244 244 244 245 247 249 251 253 255 259 263 266 269 273 276 280 282 285 288 291 294 296 296 294 291 288 284 280 277 273 270 267 264 261 256 253 252 251 248 244 241 242 242 244 248 249 248 246 244 241 243 245 244 253
221 220 221 222 223 223 223 222 221 221 222 225 227 228 228 229 230 231 231 231 231 230 230 231 232 232 232 231 232 235 239 242 243 244 244 245 247 249 251 253 255 259 262 264 268 272 276 279 282 285 288 291 294 295 295 293 291 289 286 283 280 276 272 269 267 265 261 256 253 251 249 245 240 238 237 236 238 239 239 244 245 243 244 245 243 245
219 219 221 223 224 223 223 222 222 221 222 224 226 226 227 228 229 230 231 231 230 230 230 231 231 231 231 231 232 234 238 241 243 243 243 245 247 249 251 254 256 258 261 264 268 272 275 278 282 286 289 291 293 294 294 293 292 290 288 285 282 278 275 271 267 265 263 260 256 252 249 246 242 237 232 226 224 227 229 234 240 243 246 245 240 237
218 218 220 222 224 225 225 224 223 222 223 224 225 226 226 227 228 228 229 230 230 229 230 230 229 230 230 230 231 233 237 241 242 242 243 245 247 249 252 254 256 258 261 264 268 271 275 279 282 285 288 291 293 294 294 294 293 291 288 285 282 279 276 273 269 265 262 260 257 253 249 246 243 238 231 224 220 223 226 227 233 240 242 243 239 237
217 217 219 221 224 226 227 227 226 225 224 224 225 226 226 226 226 227 228 229 230 230 230 230 229 229 230 230 230 233 238 241 242 242 243 245 247 250 252 254 256 259 261 264 267 271 274 279 282 285 288 291 293 294 295 294 293 290 288 285 282 279 276 273 269 266 262 257 255 253 250 246 244 239 232 225 222 222 224 225 230 234 233 235 236 236
215 216 217 219 221 224 226 227 227 227 226 226 226 225 225 225 226 227 228 229 230 231 231 230 228 228 230 229 229 233 237 241 242 242 243 244 247 249 252 254 257 259 262 265 267 271 274 279 282 285 288 290 292 294 295 294 293 291 290 287 284 281 277 274 269 265 262 256 252 250 249 247 244 240 233 225 221 220 220 220 225 227 226 230 234 235
213 214 215 217 220 222 224 226 227 226 226 226 226 226 225 225 225 227 228 228 229 231 231 231 228 228 230 229 228 232 237 239 241 242 243 244 246 248 251 254 257 259 262 265 267 271 275 279 282 285 287 289 292 294 295 295 294 293 292 290 289 286 283 279 274 268 263 258 252 248 248 247 244 239 234 226 219 217 216 217 221 224 222 226 232 235
213 214 214 217 220 223 225 226 226 225 225 225 225 226 226 226 225 226 227 227 228 230 231 231 229 228 230 229 228 232 236 239 240 242 243 244 246 248 251 254 257 259 262 265 268 271 276 279 282 284 286 288 291 293 295 296 296 295 295 294 293 291 288 285 281 276 270 263 255 250 247 246 244 240 235 228 221 217 215 216 221 223 220 221 225 230
214 214 214 216 219 223 225 226 227 227 226 226 225 226 226 226 226 227 228 227 228 230 230 232 231 228 229 229 228 231 236 239 241 242 243 244 245 248 250 253 256 259 262 265 269 272 276 279 281 283 285 287 290 292 296 298 298 298 298 297 296 293 291 288 286 284 278 270 261 254 248 246 244 240 235 230 224 220 216 217 221 221 219 218 219 224
214 214 215 217 219 222 225 226 227 228 228 228 227 227 227 227 227 228 228 227 228 229 230 232 232 230 229 229 229 231 236 238 240 241 242 243 245 247 250 253 256 259 262 265 269 273 276 279 281 283 284 286 290 294 297 299 299 299 299 298 296 294 293 291 291 289 285 277 266 257 251 246 244 241 237 232 226 222 219 217 219 220 219 219 218 219
214 214 215 218 220 223 225 226 227 228 228 227 227 227 227 227 227 226 225 225 226 227 229 231 232 231 230 229 229 231 235 237 239 240 240 242 244 246 249 253 255 259 262 265 269 273 276 278 280 282 284 287 291 295 299 300 300 299 298 297 297 295 295 295 294 293 289 283 273 261 253 247 243 241 237 233 229 225 221 218 218 220 221 221 220 219
212 212 214 217 219 222 224 226 227 228 228 227 226 225 225 225 225 223 222 223 224 225 228 230 232 232 230 228 228 231 235 237 238 238 239 241 243 246 249 252 255 258 261 265 269 273 275 278 279 281 284 288 292 296 298 299 299 298 298 298 298 298 297 297 296 294 290 285 278 266 254 247 242 239 237 234 230 227 224 220 218 219 221 222 224 224
209 210 212 214 217 220 223 224 226 228 229 229 229 227 225 224 223 222 222 223 224 225 227 229 230 231 229 227 228 231 234 236 236 237 238 240 243 245 248 251 254 258 261 265 269 272 275 277 279 281 284 288 292 295 297 298 299 299 300 301 301 300 299 299 297 294 290 285 279 269 255 245 240 237 235 234 231 228 226 223 219 218 219 221 224 226
209 210 211 213 216 218 221 223 225 226 226 227 228 227 225 224 222 222 222 222 224 226 227 228 230 231 229 227 227 231 234 235 235 235 237 240 242 245 248 251 254 257 261 265 269 272 274 276 278 281 285 289 292 295 297 298 299 300 301 302 301 300 300 300 297 294 290 284 278 270 256 244 239 237 235 233 231 228 226 225 222 219 218 220 222 224
208 209 210 213 215 218 220 222 224 225 226 227 226 223 223 223 222 222 221 221 224 227 228 230 231 231 229 226 228 232 234 234 234 235 237 240 243 246 248 251 254 257 261 265 269 272 274 276 279 282 286 289 292 294 296 297 299 300 301 301 301 301 302 300 298 296 291 285 278 270 257 245 239 237 234 232 231 229 227 226 225 222 219 221 223 223
208 209 211 213 215 218 220 222 224 225 227 228 225 222 221 220 220 221 221 222 224 226 228 229 230 230 228 226 228 232 234 234 234 235 238 241 243 246 249 252 254 258 261 265 269 271 273 276 280 283 286 289 291 293 294 296 297 299 300 300 301 302 303 301 300 298 293 286 279 270 258 246 238 235 232 230 230 231 229 227 226 224 221 222 225 226
209 210 212 215 217 219 221 223 225 226 227 226 224 222 222 221 220 220 220 221 223 226 227 228 229 228 226 224 228 232 234 234 234 235 238 242 244 247 250 253 255 258 261 265 268 271 274 277 280 283 285 288 289 291 292 294 296 297 299 300 302 303 303 302 301 300 294 286 279 269 257 245 237 234 230 227 228 230 229 227 227 226 224 223 226 229
211 213 214 216 219 221 223 225 225 225 223 221 220 220 221 222 221 221 221 221 222 224 226 227 227 227 225 223 226 231 234 234 234 236 239 243 245 248 250 253 255 258 262 265 268 271 274 277 280 283 285 287 288 290 291 293 294 297 299 302 303 304 304 303 303 301 295 287 279 268 256 245 237 232 228 223 223 227 228 227 226 227 226 225 227 231
213 215 217 219 221 223 223 223 222 221 219 218 217 216 216 218 218 220 222 222 223 224 226 227 227 226 225 224 226 231 235 235 235 237 240 242 245 247 250 252 255 258 262 265 267 270 273 277 280 282 284 286 288 289 290 291 293 297 300 303 304 305 305 304 304 302 295 285 278 267 253 242 235 229 225 221 221 224 225 224 225 226 227 227 227 230
213 216 217 219 220 220 219 218 217 216 215 214 214 214 215 215 215 218 220 221 223 225 226 228 228 227 227 226 228 233 235 234 234 236 239 242 245 248 250 252 255 258 261 263 266 269 273 277 280 281 283 285 288 289 289 290 293 297 301 303 305 306 306 305 305 302 294 283 275 263 248 237 230 225 222 220 221 222 222 222 222 225 227 226 227 229
210 212 213 215 216 216 215 214 213 213 213 212 212 214 216 217 217 219 220 220 223 225 227 229 228 227 226 227 230 233 235 234 235 237 240 242 245 247 249 252 255 257 259 262 266 270 273 276 278 280 282 285 287 288 289 291 294 298 301 304 305 306 306 306 305 301 292 280 270 257 240 228 222 219 219 220 221 221 220 220 220 222 224 225 227 229
206 207 207 209 211 211 211 212 212 212 212 212 212 214 216 218 219 221 222 223 223 225 227 228 227 226 226 227 230 234 235 235 236 238 240 242 245 247 249 252 254 257 259 263 266 270 272 274 276 279 282 284 287 288 289 291 294 297 301 304 305 306 306 306 305 300 288 276 264 247 230 220 216 215 216 218 219 219 219 219 219 220 221 222 224 227
200 201 202 203 205 205 206 208 210 212 212 212 213 214 216 217 219 222 224 225 225 226 228 229 227 227 227 229 231 234 235 236 237 239 241 243 245 247 250 252 254 257 260 263 266 269 270 273 276 279 281 284 286 288 288 291 294 297 301 303 304 305 306 305 304 298 283 270 257 238 222 214 213 214 216 216 217 217 217 217 217 218 218 219 222 223
197 198 200 201 203 203 204 204 207 209 210 211 213 214 215 216 218 221 224 225 226 226 227 228 227 227 228 230 233 234 235 235 237 239 241 243 245 248 250 252 254 257 261 263 266 268 270 273 276 278 281 283 286 287 288 290 293 297 300 303 304 305 305 304 303 296 279 264 249 230 217 211 211 214 216 216 216 217 216 215 216 217 217 218 221 222
198 198 200 201 203 204 206 207 207 208 209 210 212 213 215 216 218 221 224 225 226 227 227 227 227 226 227 230 233 235 235 236 237 239 242 244 246 248 250 252 255 258 261 263 265 267 270 272 275 277 280 283 285 287 288 290 293 296 299 302 303 304 304 303 302 294 276 259 242 225 216 211 210 215 218 217 217 217 217 216 217 217 219 220 221 222
201 201 201 203 204 206 207 209 210 210 210 211 211 213 216 218 220 223 225 227 227 228 228 228 227 227 228 230 233 235 235 237 238 240 242 244 246 248 250 253 255 258 260 262 264 267 269 271 274 276 279 282 284 286 288 290 292 295 298 301 302 302 302 301 300 293 274 256 239 223 216 213 212 215 219 219 218 217 218 218 218 220 221 222 223 223
205 205 205 205 206 206 207 208 210 211 211 212 213 214 217 220 223 225 227 228 228 228 229 228 227 228 230 232 233 235 236 237 239 241 242 244 246 249 251 254 256 257 259 262 264 267 269 271 273 276 278 281 283 286 288 289 291 293 296 300 301 300 300 298 297 293 276 254 238 224 217 216 215 216 219 220 220 218 218 218 220 222 222 222 223 224
206 206 207 207 207 207 206 207 208 209 210 212 214 216 219 222 224 226 227 228 227 227 228 228 227 228 230 233 234 235 236 237 239 241 243 245 247 250 252 253 255 257 259 262 264 266 268 271 273 275 278 281 284 286 287 288 290 292 295 298 299 298 297 296 294 291 279 257 239 227 220 218 218 218 219 221 221 220 219 219 219 221 222 222 223 225
201 201 203 204 205 205 206 206 208 210 211 213 215 218 221 223 225 226 227 227 227 227 227 228 228 229 230 233 235 236 236 237 239 242 244 246 248 249 251 253 255 258 260 262 263 266 268 271 273 276 278 281 284 285 286 286 288 290 293 296 297 295 294 293 292 290 282 264 243 230 224 222 221 221 221 222 222 222 221 220 220 220 220 221 223 225
195 196 198 201 203 204 206 207 209 211 213 215 217 220 222 224 225 226 227 228 228 228 228 228 229 230 231 233 235 237 237 238 240 242 244 246 248 250 252 254 257 258 260 262 264 266 268 271 273 276 278 281 283 284 284 284 286 289 292 294 294 292 291 291 289 287 283 270 250 234 228 226 225 225 225 224 223 223 222 222 222 222 221 221 223 225
195 196 199 201 204 206 208 209 211 213 216 219 220 222 224 225 226 227 228 228 229 229 229 230 231 232 233 234 236 238 239 240 242 244 246 248 250 252 254 256 257 259 260 263 265 267 269 271 273 276 278 280 282 282 282 282 284 287 290 291 291 289 288 287 286 284 280 272 258 241 231 228 228 228 228 226 224 224 223 223 224 224 224 223 222 223
198 199 201 204 207 209 211 214 215 217 220 222 224 225 227 228 229 229 229 230 230 231 232 232 233 234 236 237 238 240 242 243 244 246 248 250 252 254 255 257 258 260 262 264 266 268 269 271 273 276 278 280 280 280 279 280 282 285 288 290 289 287 286 284 283 282 278 272 262 250 237 230 229 230 230 228 226 224 224 224 224 225 226 226 224 224
201 203 205 207 210 212 214 216 219 221 223 225 226 228 230 230 231 231 231 231 232 232 234 235 236 237 239 241 242 243 245 246 248 249 251 253 254 256 257 259 260 262 264 265 267 268 270 272 274 276 278 278 278 278 278 278 281 283 286 289 288 286 284 283 281 280 278 273 265 256 245 235 231 230 231 230 228 227 226 226 225 225 226 226 226 224
204 206 208 210 213 215 217 220 222 224 226 228 230 232 233 232 232 232 232 233 233 234 235 237 238 240 241 243 244 245 247 249 250 252 253 254 255 257 258 260 261 263 264 265 267 269 271 273 275 276 276 276 276 277 277 278 280 283 286 287 286 284 283 282 280 278 276 273 268 260 252 243 235 231 231 231 231 230 230 228 227 226 226 226 226 224
208 209 211 214 216 218 221 223 225 228 230 232 233 234 234 234 233 233 233 234 235 235 237 238 240 241 242 244 245 247 248 250 251 253 254 255 256 257 259 260 262 263 264 266 268 270 272 274 275 276 276 276 276 276 277 278 280 282 284 285 284 282 282 281 279 275 274 272 269 263 256 249 242 236 232 231 231 232 232 231 230 229 228 227 227 226
212 214 216 218 220 222 224 226 228 231 232 234 234 234 233 233 234 234 234 235 236 236 237 238 240 241 243 245 247 248 249 250 252 253 254 255 256 258 259 260 262 264 265 267 268 270 272 274 275 276 276 276 276 277 277 278 280 282 283 283 281 279 279 279 277 274 271 270 269 266 259 253 248 243 237 234 232 232 233 233 232 232 231 230 229 229
218 219 220 223 225 226 227 229 230 232 232 233 233 233 233 233 234 234 234 235 237 237 238 239 241 242 244 245 247 248 249 250 251 253 254 256 257 258 259 261 262 264 266 268 269 271 272 274 275 275 276 276 276 277 278 279 280 282 282 281 280 277 276 276 275 271 268 268 268 267 263 256 250 246 243 239 235 233 234 234 233 233 233 233 232 231
221 222 223 224 225 226 227 229 229 230 231 231 232 233 234 234 234 234 235 236 238 238 239 240 241 242 244 245 246 248 249 250 251 252 254 256 257 258 260 262 263 265 267 269 270 272 273 274 274 275 275 276 276 277 278 280 281 281 281 280 278 276 275 274 272 269 266 265 265 265 263 259 253 248 245 242 239 236 235 235 235 233 232 232 232 232
221 221 222 224 225 226 227 228 228 229 230 231 232 233 234 235 235 235 235 237 238 239 240 240 241 243 244 246 247 248 250 251 253 254 255 257 258 260 261 263 265 267 268 270 271 272 273 273 274 274 275 276 277 278 279 280 280 280 279 278 277 276 275 273 271 267 264 262 262 262 262 260 257 251 246 244 242 239 237 237 237 236 234 233 232 232
221 221 223 224 225 226 227 228 230 230 231 232 233 234 235 236 236 237 237 238 239 241 241 242 243 243 245 247 248 250 251 252 254 255 257 258 260 262 263 265 266 268 269 270 271 272 272 273 274 274 275 276 278 278 279 279 279 278 278 277 276 275 274 272 270 267 264 262 260 260 260 259 258 254 249 245 243 242 239 238 238 238 237 235 233 232
221 222 224 225 226 227 228 229 230 231 232 233 234 235 236 237 238 238 239 240 241 242 243 244 245 246 247 248 250 251 252 254 256 257 259 260 261 263 264 266 267 268 269 270 271 272 272 273 274 275 276 277 278 278 278 278 277 277 276 276 275 274 273 272 271 269 266 263 261 259 258 257 257 255 252 248 245 243 242 240 238 238 238 238 236 233
222 223 225 226 227 229 230 231 231 232 233 234 235 236 237 238 240 241 242 242 243 244 246 247 248 249 249 250 251 253 254 255 257 259 260 261 263 264 265 266 267 268 269 270 271 272 273 274 275 276 276 277 277 276 276 276 276 276 276 275 274 274 273 272 272 270 268 266 263 260 258 256 255 255 254 252 248 245 244 242 239 238 238 238 238 237
225 226 227 228 229 230 232 233 234 235 235 236 237 238 239 240 242 243 244 245 246 247 248 249 250 251 251 252 253 254 255 257 258 259 260 262 263 265 266 267 268 269 270 271 272 273 274 275 275 275 275 275 275 275 275 276 276 276 276 275 275 275 274 274 272 271 269 267 265 263 260 258 255 254 254 253 251 248 246 244 242 239 238 238 238 238
228 229 230 231 232 233 234 235 237 238 238 239 240 241 242 243 244 245 246 247 248 248 249 250 251 252 253 254 255 256 257 258 259 260 261 262 263 265 266 267 268 269 270 271 272 272 273 273 273 273 274 274 274 275 275 275 276 276 276 276 276 276 275 275 274 272 270 268 266 264 262 260 257 255 254 253 252 251 249 246 244 242 240 238 237 237
232 232 233 234 235 236 237 238 239 240 241 242 243 244 244 245 246 247 248 248 249 250 250 251 252 253 254 255 256 257 258 259 260 261 262 263 264 265 266 267 268 269 269 270 270 271 271 271 272 272 273 274 274 275 275 276 276 276 276 276 276 275 275 274 273 272 270 269 267 265 263 262 260 258 256 254 253 252 251 249 248 246 243 241 239 237
236 237 238 238 239 240 241 242 243 244 244 245 245 246 247 247 248 248 249 250 251 252 253 254 254 255 256 257 258 259 260 260 261 262 263 264 265 266 267 267 268 268 269 270 270 270 271 272 272 273 274 274 275 275 275 276 276 275 275 275 274 273 272 271 270 269 268 267 266 265 263 262 261 260 258 256 254 253 253 252 251 249 247 245 243 240
239 240 241 241 242 243 244 245 246 247 248 248 248 249 249 249 250 250 251 252 253 254 254 255 256 257 257 258 259 260 260 261 262 263 264 264 265 266 266 267 268 269 270 270 271 272 273 273 274 274 275 275 275 275 275 275 275 275 274 273 273 272 271 270 269 268 267 266 264 263 262 261 260 259 259 258 256 254 253 252 252 251 251 249 247 245
Height
10599 10605 10613 10621 10626 10629 10632 10634 10637 10641 10643 10644 10647 10652 10656 10661 10664 10669 10674 10677 10680 10685 10689 10691 10692 10698 10705 10706 10709 10712 10713 10714 10714 10715 10717 10718 10721 10725 10728 10729 10729 10731 10733 10735 10735 10735 10735 10734 10734 10734 10734 10733 10732 10730 10728 10727 10726 10726 10725 10724 10723 10722 10721 10721 10722 10723 10725 10727 10729 10732 10735 10738 10741 10743 10745 10746 10747 10747 10748 10749 10752 10753 10754 10754 10753 10754
10591 10600 10608 10614 10617 10620 10622 10625 10630 10634 10635 10637 10641 10646 10651 10655 10659 10664 10668 10671 10676 10681 10684 10685 10686 10693 10700 10702 10705 10706 10707 10708 10709 10711 10712 10714 10716 10720 10723 10724 10725 10727 10729 10730 10731 10732 10731 10729 10729 10728 10727 10726 10725 10724 10723 10722 10721 10721 10720 10719 10718 10717 10716 10716 10717 10718 10720 10722 10724 10726 10729 10733 10738 10739 10740 10742 10742 10742 10744 10746 10748 10750 10751 10752 10751 10752
10586 10596 10601 10605 10610 10613 10615 10620 10625 10627 10629 10632 10636 10641 10645 10650 10655 10660 10663 10667 10671 10676 10678 10679 10682 10688 10694 10698 10700 10700 10701 10703 10704 10706 10707 10709 10711 10715 10719 10720 10721 10722 10724 10726 10728 10727 10726 10724 10723 10722 10720 10720 10719 10719 10719 10718 10717 10716 10715 10714 10713 10712 10711 10712 10712 10713 10715 10717 10719 10720 10722 10727 10732 10732 10733 10735 10736 10738 10740 10742 10744 10746 10748 10749 10749 10749
10581 10588 10593 10598 10602 10605 10610 10616 10620 10623 10625 10627 10631 10636 10640 10645 10650 10653 10657 10662 10666 10670 10673 10673 10677 10683 10689 10695 10696 10695 10696 10698 10700 10701 10702 10704 10707 10710 10714 10716 10717 10718 10720 10722 10723 10722 10721 10719 10718 10716 10715 10715 10715 10715 10714 10713 10712 10710 10709 10708 10708 10707 10707 10706 10707 10708 10709 10711 10712 10714 10716 10720 10723 10724 10726 10729 10731 10733 10734 10737 10739 10742 10743 10743 10746 10746
10572 10578 10584 10589 10592 10598 10605 10609 10614 10618 10621 10623 10626 10630 10636 10640 10644 10647 10653 10657 10661 10664 10666 10668 10672 10678 10685 10690 10691 10691 10692 10694 10695 10696 10697 10699 10702 10705 10708 10711 10713 10714 10716 10717 10717 10717 10716 10714 10712 10711 10711 10711 10712 10711 10709 10707 10706 10705 10704 10703 10703 10702 10702 10701 10701 10701 10703 10705 10706 10707 10710 10713 10716 10717 10720 10724 10726 10727 10729 10731 10734 10736 10737 10738 10742 10744
10562 10571 10577 10578 10583 10592 10598 10602 10608 10612 10615 10617 10620 10625 10631 10634 10638 10644 10649 10651 10655 10659 10660 10663 10667 10675 10681 10684 10686 10687 10688 10689 10690 10691 10692 10694 10697 10700 10703 10706 10708 10711 10712 10712 10712 10711 10710 10708 10707 10706 10707 10708 10708 10706 10704 10702 10701 10699 10698 10698 10698 10697 10697 10696 10696 10696 10696 10698 10699 10701 10703 10706 10709 10711 10715 10718 10721 10722 10724 10726 10728 10731 10731 10732 10737 10740
10555 10565 10568 10572 10579 10585 10590 10595 10600 10605 10609 10612 10614 10619 10624 10628 10634 10640 10643 10646 10650 10653 10654 10657 10663 10671 10675 10678 10681 10682 10684 10684 10685 10686 10687 10689 10692 10695 10698 10701 10703 10706 10707 10707 10707 10706 10704 10703 10702 10702 10702 10703 10703 10702 10700 10699 10697 10695 10694 10693 10692 10692 10692 10691 10691 10690 10691 10692 10693 10694 10695 10697 10701 10705 10709 10713 10716 10717 10719 10722 10723 10725 10726 10727 10731 10734
10552 10559 10561 10568 10575 10579 10585 10590 10594 10599 10603 10605 10609 10614 10618 10623 10629 10633 10636 10641 10644 10647 10649 10652 10660 10665 10668 10672 10676 10677 10679 10680 10680 10681 10683 10685 10687 10690 10693 10695 10698 10700 10702 10703 10702 10700 10699 10697 10697 10697 10698 10698 10698 10696 10695 10694 10693 10691 10690 10689 10688 10687 10686 10686 10685 10685 10686 10686 10686 10688 10689 10690 10693 10698 10704 10709 10711 10712 10715 10718 10719 10720 10721 10721 10724 10727
10546 10551 10557 10565 10569 10574 10580 10584 10589 10593 10596 10600 10605 10607 10611 10617 10622 10627 10631 10635 10639 10642 10643 10649 10656 10660 10662 10667 10670 10673 10675 10675 10676 10678 10679 10680 10682 10685 10687 10689 10692 10694 10696 10697 10697 10695 10694 10693 10692 10692 10693 10693 10692 10691 10690 10689 10688 10686 10685 10685 10684 10683 10682 10681 10681 10680 10681 10681 10681 10682 10682 10683 10686 10691 10698 10703 10705 10709 10712 10714 10715 10715 10716 10716 10718 10721
10537 10544 10550 10556 10561 10566 10571 10576 10581 10585 10590 10596 10598 10601 10606 10612 10618 10623 10627 10631 10635 10637 10640 10646 10652 10653 10656 10661 10665 10668 10670 10670 10672 10674 10675 10676 10678 10680 10682 10684 10686 10688 10690 10691 10691 10690 10689 10688 10688 10688 10688 10688 10687 10685 10684 10684 10683 10681 10681 10681 10680 10679 10678 10676 10676 10676 10675 10675 10676 10676 10676 10677 10680 10685 10691 10695 10699 10703 10706 10708 10709 10709 10710 10711 10713 10716
10528 10534 10541 10547 10552 10556 10561 10566 10571 10577 10584 10589 10592 10597 10601 10606 10613 10618 10621 10626 10630 10632 10637 10642 10646 10648 10650 10654 10660 10663 10664 10665 10667 10669 10670 10671 10673 10675 10677 10678 10680 10682 10684 10685 10685 10684 10684 10684 10683 10683 10683 10683 10681 10680 10679 10678 10678 10677 10676 10676 10675 10674 10672 10671 10670 10671 10671 10671 10671 10671 10671 10671 10673 10677 10683 10687 10691 10695 10698 10701 10702 10703 10703 10704 10707 10711
10520 10526 10534 10542 10546 10550 10555 10561 10566 10573 10579 10583 10588 10593 10597 10602 10607 10612 10616 10622 10626 10629 10633 10637 10640 10644 10644 10648 10655 10658 10658 10661 10663 10665 10666 10667 10668 10670 10671 10672 10674 10676 10678 10679 10678 10679 10679 10679 10679 10679 10678 10678 10677 10675 10674 10674 10673 10672 10671 10670 10669 10668 10667 10666 10665 10665 10666 10666 10666 10667 10666 10666 10667 10670 10675 10680 10684 10687 10690 10692 10693 10695 10697 10698 10700 10704
10515 10523 10532 10537 10541 10546 10551 10558 10564 10570 10575 10579 10585 10588 10593 10598 10602 10608 10614 10620 10623 10625 10629 10631 10634 10638 10639 10643 10650 10652 10655 10657 10659 10660 10662 10662 10664 10664 10666 10667 10669 10671 10672 10672 10672 10673 10673 10673 10673 10673 10673 10673 10672 10671 10670 10669 10668 10667 10666 10665 10663 10662 10661 10660 10660 10660 10660 10660 10661 10661 10662 10661 10661 10664 10668 10673 10678 10679 10680 10681 10683 10687 10690 10691 10693 10697
10511 10520 10527 10532 10538 10543 10549 10556 10563 10568 10573 10577 10582 10586 10590 10594 10599 10607 10613 10617 10618 10621 10625 10626 10628 10633 10635 10639 10644 10648 10651 10652 10654 10656 10657 10657 10658 10659 10660 10662 10664 10666 10667 10666 10667 10667 10668 10667 10667 10667 10667 10667 10667 10666 10665 10664 10663 10662 10661 10659 10658 10657 10655 10654 10654 10653 10652 10653 10654 10655 10656 10655 10655 10658 10661 10665 10669 10670 10670 10672 10676 10679 10682 10684 10687 10690
10509 10519 10526 10532 10538 10542 10548 10555 10559 10563 10566 10570 10575 10580 10584 10589 10596 10602 10607 10610 10612 10616 10619 10620 10623 10629 10632 10635 10640 10644 10645 10647 10649 10650 10651 10652 10652 10654 10656 10657 10659 10661 10661 10661 10662 10662 10663 10662 10662 10662 10662 10662 10662 10661 10660 10658 10657 10656 10655 10654 10653 10651 10650 10649 10647 10646 10645 10645 10646 10647 10648 10648 10648 10651 10653 10657 10660 10662 10663 10666 10670 10673 10676 10680 10682 10685
10507 10516 10522 10528 10534 10539 10544 10549 10553 10556 10559 10563 10568 10573 10578 10583 10589 10595 10599 10603 10606 10610 10612 10615 10620 10624 10627 10631 10635 10638 10639 10642 10644 10645 10646 10646 10647 10649 10651 10653 10655 10656 10656 10656 10657 10658 10658 10658 10657 10657 10657 10656 10656 10655 10654 10652 10651 10650 10649 10648 10647 10645 10644 10643 10642 10640 10638 10636 10637 10638 10639 10639 10641 10643 10645 10648 10651 10654 10656 10659 10663 10666 10670 10674 10677 10680
10501 10508 10515 10522 10527 10532 10537 10543 10547 10549 10554 10559 10564 10569 10574 10578 10584 10590 10594 10597 10601 10603 10607 10611 10616 10619 10622 10626 10629 10632 10634 10636 10638 10639 10640 10641 10642 10645 10646 10648 10650 10650 10651 10651 10652 10653 10653 10653 10653 10652 10652 10651 10650 10649 10647 10646 10644 10643 10642 10641 10640 10639 10638 10637 10636 10633 10630 10629 10628 10629 10630 10631 10633 10635 10637 10641 10644 10646 10648 10650 10654 10658 10663 10667 10670 10673
10496 10503 10510 10515 10520 10525 10531 10535 10538 10542 10549 10554 10558 10564 10569 10574 10580 10584 10587 10592 10596 10598 10603 10608 10612 10615 10618 10621 10624 10627 10629 10630 10631 10632 10634 10635 10637 10640 10642 10643 10645 10645 10646 10647 10648 10648 10648 10648 10648 10648 10647 10646 10645 10643 10641 10639 10637 10636 10635 10634 10633 10633 10632 10630 10628 10626 10623 10621 10620 10621 10622 10624 10625 10627 10630 10633 10636 10638 10640 10643 10646 10652 10657 10660 10663 10667
10490 10497 10503 10508 10514 10519 10524 10528 10532 10539 10546 10549 10553 10559 10564 10570 10575 10577 10582 10588 10591 10595 10601 10605 10608 10610 10612 10616 10619 10621 10622 10624 10624 10626 10628 10630 10633 10635 10637 10639 10640 10640 10641 10642 10643 10643 10643 10643 10643 10643 10642 10641 10639 10637 10635 10633 10632 10630 10629 10628 10627 10626 10625 10624 10621 10619 10616 10613 10613 10613 10614 10615 10617 10619 10622 10625 10628 10630 10634 10637 10641 10645 10650 10652 10656 10660
10485 10492 10497 10503 10509 10513 10518 10524 10530 10538 10542 10545 10550 10556 10559 10564 10568 10572 10578 10584 10587 10592 10597 10599 10601 10604 10607 10611 10613 10615 10616 10617 10618 10621 10623 10625 10628 10630 10632 10634 10635 10635 10636 10637 10638 10638 10638 10638 10639 10638 10637 10635 10634 10632 10630 10629 10627 10626 10624 10622 10621 10620 10619 10617 10614 10612 10609 10606 10605 10606 10606 10607 10609 10611 10614 10619 10622 10625 10628 10632 10635 10638 10642 10645 10649 10653
10481 10487 10493 10499 10504 10509 10516 10523 10530 10535 10538 10542 10549 10553 10557 10561 10565 10570 10575 10579 10583 10587 10590 10593 10595 10597 10601 10604 10606 10608 10609 10610 10613 10616 10617 10620 10623 10626 10627 10629 10630 10630 10631 10632 10632 10633 10633 10633 10634 10633 10632 10630 10629 10628 10626 10625 10623 10621 10619 10618 10616 10615 10613 10611 10608 10605 10602 10599 10599 10599 10599 10600 10602 10604 10608 10613 10617 10619 10622 10626 10629 10632 10636 10639 10643 10646
10479 10485 10490 10497 10502 10509 10516 10522 10526 10529 10533 10538 10543 10547 10553 10557 10562 10568 10571 10575 10579 10581 10584 10586 10587 10590 10594 10597 10601 10602 10603 10605 10610 10612 10613 10616 10619 10620 10622 10623 10624 10625 10626 10627 10627 10627 10628 10628 10628 10628 10627 10626 10624 10623 10622 10620 10618 10616 10614 10613 10611 10609 10608 10605 10602 10599 10596 10593 10592 10593 10593 10594 10596 10598 10602 10606 10610 10612 10615 10620 10624 10626 10630 10634 10638 10641
10478 10483 10488 10495 10501 10507 10512 10516 10519 10523 10528 10532 10536 10540 10545 10549 10555 10561 10565 10570 10574 10575 10577 10579 10580 10585 10588 10592 10597 10598 10598 10603 10607 10608 10609 10611 10613 10615 10617 10617 10618 10619 10621 10622 10622 10623 10623 10623 10623 10623 10622 10620 10619 10618 10617 10615 10613 10611 10609 10607 10605 10604 10602 10599 10596 10594 10590 10587 10586 10587 10588 10588 10590 10593 10596 10599 10602 10606 10610 10614 10617 10620 10624 10629 10632 10636
10475 10479 10486 10492 10496 10500 10503 10507 10512 10517 10521 10525 10530 10536 10540 10545 10551 10555 10559 10564 10567 10569 10572 10573 10576 10582 10585 10588 10592 10593 10595 10599 10601 10602 10604 10606 10608 10610 10611 10612 10612 10614 10616 10616 10617 10617 10618 10618 10618 10617 10616 10615 10614 10613 10612 10610 10609 10606 10604 10602 10600 10598 10597 10594 10591 10588 10585 10583 10581 10582 10583 10584 10586 10589 10592 10595 10598 10601 10604 10608 10611 10615 10618 10623 10627 10631
10471 10476 10481 10486 10489 10494 10498 10503 10507 10512 10518 10523 10528 10533 10538 10544 10548 10550 10554 10558 10561 10565 10567 10568 10573 10578 10580 10583 10586 10588 10591 10594 10595 10597 10599 10600 10603 10604 10605 10606 10607 10609 10609 10610 10612 10613 10613 10613 10612 10611 10611 10610 10609 10608 10607 10605 10603 10601 10599 10597 10595 10593 10592 10589 10586 10583 10581 10579 10578 10578 10579 10580 10582 10585 10588 10591 10593 10596 10599 10603 10606 10609 10613 10618 10622 10626
10467 10472 10477 10482 10487 10493 10498 10503 10508 10513 10518 10523 10526 10531 10535 10540 10544 10547 10551 10554 10557 10561 10562 10563 10569 10573 10574 10577 10580 10583 10586 10588 10590 10592 10593 10595 10597 10598 10599 10600 10601 10602 10604 10605 10607 10608 10607 10607 10606 10606 10606 10605 10604 10602 10601 10599 10598 10596 10594 10591 10590 10589 10587 10584 10582 10579 10576 10575 10574 10575 10576 10577 10579 10582 10584 10586 10589 10592 10595 10598 10601 10604 10609 10613 10617 10621
10465 10469 10474 10479 10483 10488 10494 10500 10506 10511 10515 10519 10523 10528 10532 10536 10541 10544 10547 10550 10553 10556 10557 10560 10565 10567 10569 10572 10575 10578 10580 10582 10584 10585 10587 10589 10591 10592 10593 10595 10595 10597 10599 10601 10602 10602 10601 10601 10601 10601 10600 10599 10598 10596 10595 10594 10592 10591 10588 10586 10584 10584 10582 10580 10578 10575 10573 10571 10571 10571 10573 10574 10576 10578 10580 10582 10585 10588 10590 10593 10597 10601 10605 10608 10612 10615
10463 10467 10472 10475 10480 10484 10489 10494 10499 10504 10509 10514 10519 10524 10528 10532 10536 10539 10540 10544 10548 10550 10552 10555 10558 10561 10564 10567 10570 10572 10574 10576 10578 10580 10582 10584 10585 10586 10588 10589 10590 10592 10594 10596 10596 10595 10595 10596 10596 10595 10594 10593 10592 10590 10589 10588 10587 10585 10583 10581 10579 10578 10578 10576 10574 10571 10569 10568 10568 10568 10570 10572 10573 10575 10576 10578 10581 10583 10586 10589 10592 10596 10600 10603 10606 10609
10461 10465 10469 10473 10478 10483 10487 10491 10495 10499 10504 10509 10514 10519 10523 10527 10531 10533 10535 10539 10542 10545 10546 10548 10552 10556 10559 10562 10564 10566 10568 10571 10573 10575 10577 10578 10579 10581 10582 10583 10586 10588 10589 10590 10589 10589 10590 10590 10590 10590 10588 10587 10586 10584 10584 10582 10581 10580 10578 10576 10574 10573 10573 10571 10570 10568 10566 10565 10564 10565 10567 10568 10570 10571 10572 10574 10577 10579 10582 10585 10588 10591 10594 10597 10600 10603
10460 10463 10467 10472 10476 10481 10485 10489 10493 10498 10502 10506 10510 10515 10519 10522 10525 10528 10531 10535 10537 10539 10541 10544 10548 10552 10554 10557 10559 10560 10563 10565 10567 10569 10571 10572 10573 10575 10576 10579 10581 10583 10584 10584 10584 10584 10584 10585 10585 10584 10583 10582 10580 10579 10578 10577 10576 10574 10573 10571 10570 10568 10568 10567 10565 10564 10563 10561 10561 10562 10563 10565 10566 10568 10569 10570 10572 10575 10578 10581 10584 10586 10589 10591 10594 10598
10458 10462 10466 10470 10474 10478 10482 10486 10491 10495 10500 10504 10507 10511 10515 10518 10521 10524 10527 10530 10532 10534 10536 10539 10544 10546 10548 10551 10554 10556 10558 10560 10562 10564 10565 10567 10568 10570 10572 10574 10576 10577 10578 10578 10578 10578 10578 10579 10580 10579 10577 10576 10575 10574 10573 10572 10570 10569 10567 10566 10565 10563 10563 10562 10561 10560 10559 10558 10558 10558 10559 10561 10562 10564 10565 10567 10568 10570 10573 10576 10579 10582 10584 10587 10590 10594
10456 10460 10465 10469 10472 10476 10480 10484 10488 10493 10497 10501 10504 10508 10511 10514 10517 10519 10522 10524 10526 10529 10531 10534 10538 10540 10543 10546 10548 10551 10553 10555 10557 10558 10560 10562 10564 10565 10567 10568 10570 10571 10572 10573 10573 10572 10572 10573 10574 10573 10571 10570 10570 10569 10568 10567 10565 10563 10562 10561 10560 10558 10558 10557 10557 10556 10555 10555 10554 10554 10555 10556 10558 10559 10561 10563 10565 10566 10568 10571 10573 10576 10579 10582 10586 10590
10453 10458 10462 10466 10470 10474 10478 10482 10486 10490 10493 10497 10501 10504 10507 10509 10512 10514 10516 10518 10521 10524 10527 10530 10532 10534 10537 10540 10543 10545 10548 10550 10552 10553 10555 10557 10558 10559 10560 10562 10564 10566 10566 10567 10567 10567 10567 10567 10568 10567 10565 10564 10564 10563 10562 10561 10559 10558 10556 10555 10554 10553 10552 10552 10552 10551 10551 10551 10550 10550 10551 10552 10553 10555 10556 10559 10560 10562 10564 10566 10568 10570 10573 10577 10581 10584
10450 10454 10459 10463 10467 10471 10475 10478 10482 10486 10490 10493 10496 10499 10501 10503 10506 10508 10510 10513 10516 10519 10522 10524 10527 10529 10532 10535 10537 10539 10542 10545 10546 10548 10549 10551 10552 10553 10555 10557 10559 10560 10560 10560 10561 10561 10561 10561 10561 10561 10560 10559 10558 10557 10556 10554 10553 10552 10551 10550 10549 10547 10547 10547 10547 10547 10546 10546 10546 10546 10546 10547 10548 10549 10551 10554 10555 10557 10559 10561 10563 10565 10568 10572 10575 10578
10446 10451 10455 10460 10463 10467 10471 10474 10478 10483 10486 10488 10491 10494 10496 10498 10500 10503 10505 10509 10512 10515 10517 10520 10522 10524 10527 10530 10532 10534 10536 10539 10541 10543 10544 10546 10547 10549 10551 10552 10553 10553 10553 10554 10555 10555 10555 10555 10555 10554 10554 10553 10552 10551 10549 10548 10547 10546 10545 10544 10543 10542 10541 10541 10541 10542 10541 10541 10541 10541 10541 10541 10542 10544 10545 10548 10550 10552 10554 10555 10558 10560 10563 10566 10570 10572
10444 10448 10452 10456 10460 10464 10468 10472 10477 10480 10481 10483 10486 10489 10491 10494 10496 10499 10502 10506 10508 10511 10513 10516 10518 10521 10523 10525 10528 10529 10531 10534 10536 10538 10539 10541 10543 10544 10545 10546 10546 10546 10547 10548 10548 10548 10548 10548 10548 10548 10547 10547 10546 10544 10543 10542 10541 10540 10539 10538 10537 10537 10536 10536 10535 10536 10536 10535 10535 10535 10536 10536 10536 10537 10539 10541 10544 10546 10548 10550 10552 10554 10557 10560 10563 10567
10443 10447 10451 10454 10458 10461 10465 10469 10472 10474 10476 10479 10482 10485 10487 10490 10493 10496 10499 10502 10504 10507 10510 10512 10515 10517 10519 10521 10523 10525 10527 10529 10532 10533 10534 10536 10537 10538 10539 10539 10539 10540 10541 10541 10540 10540 10540 10541 10541 10540 10540 10539 10539 10538 10537 10535 10535 10534 10533 10532 10532 10531 10530 10530 10530 10530 10530 10530 10529 10529 10530 10530 10530 10531 10533 10534 10537 10539 10541 10544 10546 10548 10551 10554 10557 10560
10441 10445 10448 10451 10454 10458 10461 10464 10467 10470 10472 10475 10478 10481 10483 10486 10489 10492 10495 10497 10501 10504 10506 10508 10510 10512 10514 10516 10518 10520 10522 10524 10526 10527 10528 10530 10531 10531 10532 10532 10532 10532 10533 10533 10533 10533 10532 10532 10532 10532 10532 10532 10532 10531 10530 10529 10528 10528 10527 10526 10525 10524 10524 10524 10524 10523 10523 10524 10524 10523 10524 10524 10525 10525 10526 10528 10530 10532 10534 10537 10539 10542 10544 10547 10551 10553
10438 10442 10445 10448 10451 10454 10457 10460 10463 10466 10468 10471 10474 10477 10479 10481 10485 10488 10491 10493 10496 10499 10501 10503 10505 10507 10509 10511 10513 10514 10516 10518 10519 10520 10521 10523 10524 10525 10525 10525 10524 10524 10524 10525 10526 10526 10525 10524 10524 10524 10524 10525 10524 10524 10523 10523 10522 10522 10521 10520 10518 10518 10517 10517 10517 10517 10516 10517 10517 10518 10518 10518 10519 10520 10520 10522 10523 10524 10526 10529 10531 10534 10536 10540 10543 10546
10435 10439 10442 10444 10447 10451 10454 10456 10459 10461 10464 10467 10470 10472 10474 10477 10480 10483 10487 10489 10491 10493 10496 10498 10499 10501 10503 10505 10507 10509 10510 10512 10512 10513 10515 10516 10517 10518 10518 10518 10517 10516 10516 10518 10519 10519 10518 10517 10516 10516 10516 10517 10517 10516 10516 10516 10515 10514 10514 10513 10512 10511 10510 10509 10509 10509 10509 10509 10510 10511 10512 10512 10513 10514 10514 10515 10516 10518 10519 10520 10523 10526 10528 10531 10534 10537
10433 10436 10439 10441 10444 10447 10450 10452 10455 10457 10460 10463 10465 10467 10469 10472 10475 10479 10483 10484 10485 10487 10490 10492 10494 10497 10498 10499 10501 10502 10503 10504 10506 10507 10508 10509 10510 10510 10510 10510 10510 10509 10509 10510 10511 10511 10511 10510 10509 10508 10508 10508 10508 10508 10508 10507 10507 10506 10505 10505 10504 10504 10503 10502 10502 10502 10502 10502 10502 10504 10505 10506 10506 10507 10508 10508 10509 10510 10511 10512 10514 10517 10519 10522 10526 10529
10429 10432 10435 10438 10440 10443 10445 10448 10451 10453 10455 10458 10460 10462 10465 10468 10472 10475 10478 10478 10478 10481 10485 10487 10489 10491 10492 10493 10494 10495 10496 10498 10500 10501 10501 10501 10503 10503 10503 10503 10503 10502 10502 10503 10504 10504 10504 10503 10502 10501 10500 10500 10500 10500 10499 10499 10498 10497 10496 10496 10495 10495 10495 10494 10494 10494 10494 10494 10495 10496 10497 10498 10499 10499 10500 10501 10501 10502 10503 10504 10506 10508 10510 10513 10516 10520
10426 10429 10432 10434 10436 10439 10441 10444 10446 10449 10451 10453 10456 10458 10461 10464 10467 10469 10471 10472 10473 10476 10479 10481 10483 10485 10486 10486 10488 10489 10491 10492 10493 10494 10494 10495 10496 10496 10496 10496 10496 10495 10496 10496 10496 10496 10496 10495 10494 10493 10493 10492 10491 10491 10490 10490 10489 10488 10487 10487 10486 10486 10486 10486 10486 10486 10486 10486 10487 10487 10488 10489 10491 10492 10492 10492 10493 10494 10495 10496 10498 10500 10502 10504 10507 10511
10423 10425 10428 10430 10432 10435 10437 10440 10442 10444 10447 10450 10452 10454 10456 10458 10461 10463 10465 10467 10469 10470 10473 10475 10477 10479 10480 10481 10482 10484 10485 10485 10486 10487 10488 10489 10489 10489 10489 10489 10489 10489 10489 10489 10488 10488 10488 10487 10486 10485 10485 10484 10483 10482 10481 10480 10479 10479 10478 10477 10477 10477 10477 10477 10477 10478 10478 10478 10478 10479 10480 10481 10482 10483 10484 10484 10485 10486 10487 10489 10490 10491 10493 10495 10497 10501
10419 10421 10423 10426 10428 10430 10433 10435 10437 10439 10442 10445 10447 10448 10450 10452 10455 10457 10460 10462 10463 10465 10466 10468 10471 10473 10475 10476 10476 10477 10478 10478 10479 10480 10481 10482 10482 10481 10481 10481 10482 10482 10481 10481 10480 10480 10479 10479 10478 10477 10476 10475 10474 10473 10472 10471 10470 10469 10469 10468 10468 10467 10467 10468 10468 10469 10469 10470 10470 10470 10471 10472 10472 10474 10475 10476 10476 10477 10478 10480 10482 10483 10485 10486 10488 10491
10415 10417 10419 10421 10423 10425 10428 10430 10431 10434 10436 10439 10441 10442 10444 10447 10449 10452 10454 10456 10458 10459 10461 10462 10464 10466 10468 10469 10470 10471 10471 10472 10472 10473 10473 10474 10474 10474 10474 10474 10474 10474 10473 10473 10472 10471 10471 10470 10469 10468 10467 10465 10464 10463 10462 10461 10461 10460 10459 10459 10458 10458 10458 10458 10458 10459 10459 10460 10460 10461 10462 10462 10463 10464 10465 10467 10468 10468 10469 10470 10472 10474 10476 10477 10479 10481
10411 10413 10415 10416 10418 10421 10422 10424 10426 10428 10431 10434 10435 10437 10440 10442 10444 10446 10448 10450 10452 10453 10455 10456 10457 10458 10460 10461 10463 10464 10464 10465 10465 10466 10466 10466 10466 10466 10467 10467 10466 10466 10465 10465 10464 10463 10462 10461 10460 10459 10457 10456 10455 10454 10453 10452 10452 10451 10450 10449 10448 10448 10448 10448 10448 10448 10449 10449 10449 10450 10452 10452 10453 10454 10455 10457 10458 10459 10460 10461 10462 10464 10466 10468 10470 10472
10406 10408 10409 10411 10414 10416 10417 10419 10421 10423 10426 10428 10430 10432 10435 10437 10438 10440 10442 10444 10445 10446 10447 10448 10450 10451 10453 10454 10455 10456 10457 10458 10458 10459 10459 10459 10459 10459 10459 10459 10459 10458 10457 10456 10455 10454 10453 10452 10451 10449 10448 10447 10446 10445 10444 10444 10443 10442 10441 10440 10439 10438 10438 10438 10437 10437 10438 10438 10438 10439 10440 10441 10443 10444 10445 10446 10447 10449 10451 10452 10453 10454 10456 10458 10460 10462
10400 10402 10404 10406 10409 10410 10412 10414 10416 10418 10420 10423 10425 10427 10429 10431 10433 10434 10435 10436 10437 10439 10440 10442 10443 10444 10445 10447 10448 10449 10449 10450 10451 10451 10452 10452 10452 10452 10451 10451 10450 10449 10449 10448 10447 10446 10444 10443 10442 10441 10439 10438 10437 10436 10435 10435 10434 10433 10432 10430 10429 10428 10427 10427 10427 10426 10426 10427 10427 10428 10428 10430 10431 10433 10434 10435 10436 10438 10440 10442 10443 10444 10445 10447 10449 10451
10395 10397 10399 10402 10404 10405 10407 10408 10410 10412 10414 10416 10418 10420 10422 10424 10426 10426 10427 10428 10430 10432 10434 10435 10436 10437 10438 10439 10440 10441 10441 10442 10443 10443 10443 10443 10443 10443 10443 10442 10441 10441 10440 10439 10438 10437 10436 10435 10434 10432 10431 10429 10428 10427 10426 10425 10424 10423 10421 10420 10418 10417 10416 10416 10415 10415 10415 10415 10415 10416 10416 10417 10419 10421 10422 10424 10425 10427 10429 10431 10433 10434 10435 10437 10439 10441
10390 10392 10394 10396 10398 10399 10400 10402 10404 10405 10407 10409 10411 10414 10415 10416 10417 10418 10420 10422 10424 10425 10426 10427 10428 10429 10430 10430 10431 10432 10433 10434 10434 10435 10435 10435 10435 10435 10434 10433 10433 10432 10431 10430 10429 10428 10427 10426 10425 10424 10422 10420 10419 10417 10416 10415 10414 10412 10411 10409 10408 10407 10406 10405 10405 10405 10405 10405 10405 10405 10405 10405 10407 10408 10410 10411 10413 10415 10417 10419 10421 10423 10424 10426 10428 10430